Tracking 28902 objects as of 19-May-2024
HD Live streaming from Space Station
objects crossing your sky now

RADIO 8

Track RADIO 8 now!
10-day predictions
RADIO 8 is classified as:


NORAD ID: 12998
Int'l Code: 1981-120B
Perigee: 1,659.2 km
Apogee: 1,688.4 km
Inclination: 83.0 °
Period: 119.7 minutes
Semi major axis: 8044 km
RCS: 0.8671 m2 (medium)
Launch date: December 17, 1981
Source: Commonwealth of Independent States (former USSR) (CIS)
Launch site: PLESETSK MISSILE AND SPACE COMPLEX (PKMTR)

Uplink (MHz):
Downlink (MHz):
Beacon (MHz):
Mode:
Call sign:
Status:

Your satellite tracking list
Your tracking list is empty




NASA's NSSDC Master Catalog

Two Line Element Set (TLE):
1 12998U 81120B   24140.60315476 -.00000060  00000-0 -82769-3 0  9997
2 12998  82.9585 171.6584 0018172 230.8737 251.2163 12.03179211862934
Source of the keplerian elements: AFSPC